Time,TemperatureF,DewpointF,PressureIn,WindDirection,WindDirectionDegrees,WindSpeedMPH,WindSpeedGustMPH,Humidity,HourlyPrecipIn,Conditions,Clouds,dailyrainin,SoftwareType,DateUTC
2013-03-16 00:01:00,44.4,31.0,29.75,NNW,341,3.8,7.6,59,0.00,,,0.00,WUHU21623XXSP,2013-03-16 04:01:00,
2013-03-16 00:07:00,44.2,30.8,29.74,NW,318,4.0,4.0,59,0.00,,,0.00,WUHU21623XXSP,2013-03-16 04:07:00,
2013-03-16 00:09:00,44.2,30.8,29.74,NW,318,4.0,4.0,59,0.00,,,0.00,WUHU21623XXSP,2013-03-16 04:09:00,
2013-03-16 00:15:00,44.1,30.6,29.75,NNW,341,3.6,4.0,59,0.00,,,0.00,WUHU21623XXSP,2013-03-16 04:15:00,
2013-03-16 00:17:00,43.9,30.6,29.75,NNW,341,3.6,4.0,59,0.00,,,0.00,WUHU21623XXSP,2013-03-16 04:17:00,
2013-03-16 00:24:00,43.9,30.5,29.75,North,3,3.8,4.0,59,0.00,,,0.00,WUHU21623XXSP,2013-03-16 04:24:00,
2013-03-16 00:30:00,43.7,30.3,29.75,North,3,6.7,6.7,59,0.00,,,0.00,WUHU21623XXSP,2013-03-16 04:30:00,
2013-03-16 00:37:00,43.5,30.1,29.75,NW,318,5.8,6.7,59,0.00,,,0.00,WUHU21623XXSP,2013-03-16 04:37:00,
2013-03-16 00:43:00,43.3,29.9,29.75,WNW,296,3.6,6.5,59,0.00,,,0.00,WUHU21623XXSP,2013-03-16 04:43:00,
2013-03-16 00:49:00,43.3,29.9,29.75,WNW,287,4.3,6.7,59,0.00,,,0.00,WUHU21623XXSP,2013-03-16 04:49:00,
2013-03-16 00:56:00,43.2,29.8,29.75,NNW,341,2.9,6.7,59,0.00,,,0.00,WUHU21623XXSP,2013-03-16 04:56:00,
2013-03-16 01:01:00,43.2,29.8,29.74,NW,318,5.6,5.6,59,0.00,,,0.00,WUHU21623XXSP,2013-03-16 05:01:00,
2013-03-16 01:07:00,43.0,29.6,29.74,NW,318,3.8,5.6,59,0.00,,,0.00,WUHU21623XXSP,2013-03-16 05:07:00,
2013-03-16 01:13:00,43.0,29.6,29.75,NW,318,11.9,11.9,59,0.00,,,0.00,WUHU21623XXSP,2013-03-16 05:13:00,
2013-03-16 01:20:00,42.6,29.2,29.75,NNW,341,8.9,11.9,58,0.00,,,0.00,WUHU21623XXSP,2013-03-16 05:20:00,
2013-03-16 01:26:00,42.6,29.2,29.75,NNW,341,2.9,8.9,59,0.00,,,0.00,WUHU21623XXSP,2013-03-16 05:26:00,
2013-03-16 01:32:00,42.6,29.2,29.75,NW,305,3.8,4.3,59,0.00,,,0.00,WUHU21623XXSP,2013-03-16 05:32:00,
2013-03-16 01:39:00,42.6,29.2,29.75,NNW,341,2.7,4.0,59,0.00,,,0.00,WUHU21623XXSP,2013-03-16 05:39:00,
2013-03-16 01:45:00,42.6,29.2,29.76,North,349,5.8,7.2,59,0.00,,,0.00,WUHU21623XXSP,2013-03-16 05:45:00,
2013-03-16 01:52:00,42.4,28.6,29.76,NNW,341,9.8,9.8,58,0.00,,,0.00,WUHU21623XXSP,2013-03-16 05:52:00,
2013-03-16 01:58:00,42.1,28.3,29.76,NNW,341,3.4,9.8,58,0.00,,,0.00,WUHU21623XXSP,2013-03-16 05:58:00,
2013-03-16 02:03:00,42.1,27.9,29.76,West,273,3.8,7.2,57,0.00,,,0.00,WUHU21623XXSP,2013-03-16 06:03:00,
2013-03-16 02:09:00,41.9,27.7,29.76,NNW,341,5.1,5.1,57,0.00,,,0.00,WUHU21623XXSP,2013-03-16 06:09:00,
2013-03-16 02:16:00,41.7,27.5,29.77,NNW,341,9.4,13.0,57,0.00,,,0.00,WUHU21623XXSP,2013-03-16 06:16:00,
2013-03-16 02:22:00,41.5,27.4,29.76,North,3,2.7,13.0,57,0.00,,,0.00,WUHU21623XXSP,2013-03-16 06:22:00,
2013-03-16 02:28:00,41.5,27.4,29.77,NW,316,4.9,5.4,57,0.00,,,0.00,WUHU21623XXSP,2013-03-16 06:28:00,
2013-03-16 02:35:00,41.5,26.9,29.76,NNW,341,4.3,8.3,56,0.00,,,0.00,WUHU21623XXSP,2013-03-16 06:35:00,
2013-03-16 02:41:00,41.4,26.7,29.75,NNW,341,4.5,8.3,56,0.00,,,0.00,WUHU21623XXSP,2013-03-16 06:41:00,
2013-03-16 02:47:00,41.2,26.6,29.76,NNW,341,9.2,13.0,56,0.00,,,0.00,WUHU21623XXSP,2013-03-16 06:47:00,
2013-03-16 02:54:00,41.2,26.6,29.76,NNW,341,5.4,13.0,56,0.00,,,0.00,WUHU21623XXSP,2013-03-16 06:54:00,
2013-03-16 03:01:00,41.2,26.6,29.77,NNW,341,4.9,5.4,56,0.00,,,0.00,WUHU21623XXSP,2013-03-16 07:01:00,
2013-03-16 03:07:00,41.2,26.6,29.77,NW,318,3.8,4.9,56,0.00,,,0.00,WUHU21623XXSP,2013-03-16 07:07:00,
2013-03-16 03:13:00,41.2,26.6,29.77,NW,318,3.1,3.8,56,0.00,,,0.00,WUHU21623XXSP,2013-03-16 07:13:00,
2013-03-16 03:20:00,41.0,26.4,29.77,WSW,251,5.4,5.4,56,0.00,,,0.00,WUHU21623XXSP,2013-03-16 07:20:00,
2013-03-16 03:26:00,41.0,26.4,29.78,NNW,341,6.5,6.5,56,0.00,,,0.00,WUHU21623XXSP,2013-03-16 07:26:00,
2013-03-16 03:32:00,40.8,26.2,29.78,NNW,341,6.0,7.6,56,0.00,,,0.00,WUHU21623XXSP,2013-03-16 07:32:00,
2013-03-16 03:39:00,40.8,26.2,29.77,NNW,341,3.4,7.8,56,0.00,,,0.00,WUHU21623XXSP,2013-03-16 07:39:00,
2013-03-16 03:45:00,40.8,26.2,29.77,NW,318,4.0,6.5,56,0.00,,,0.00,WUHU21623XXSP,2013-03-16 07:45:00,
2013-03-16 03:52:00,40.8,26.2,29.77,NW,318,1.1,4.7,56,0.00,,,0.00,WUHU21623XXSP,2013-03-16 07:52:00,
2013-03-16 03:58:00,40.8,26.2,29.77,NNW,341,3.8,3.8,56,0.00,,,0.00,WUHU21623XXSP,2013-03-16 07:58:00,
2013-03-16 04:04:00,40.8,26.2,29.77,NNW,341,1.3,3.8,56,0.00,,,0.00,WUHU21623XXSP,2013-03-16 08:04:00,
2013-03-16 04:09:00,40.8,26.2,29.76,NNW,341,2.5,5.4,56,0.00,,,0.00,WUHU21623XXSP,2013-03-16 08:09:00,
2013-03-16 04:16:00,40.8,26.2,29.77,NW,318,2.9,2.9,56,0.00,,,0.00,WUHU21623XXSP,2013-03-16 08:16:00,
2013-03-16 04:22:00,40.8,26.2,29.77,NW,318,4.3,4.3,56,0.00,,,0.00,WUHU21623XXSP,2013-03-16 08:22:00,
2013-03-16 04:28:00,41.0,26.2,29.77,North,3,1.6,4.3,56,0.00,,,0.00,WUHU21623XXSP,2013-03-16 08:28:00,
2013-03-16 04:35:00,41.2,26.6,29.78,NW,318,1.6,2.5,56,0.00,,,0.00,WUHU21623XXSP,2013-03-16 08:35:00,
2013-03-16 04:41:00,41.2,26.6,29.78,NW,318,2.5,2.5,56,0.00,,,0.00,WUHU21623XXSP,2013-03-16 08:41:00,
2013-03-16 04:48:00,41.2,26.6,29.78,NNW,341,2.2,2.5,56,0.00,,,0.00,WUHU21623XXSP,2013-03-16 08:48:00,
2013-03-16 04:54:00,41.2,26.6,29.78,NNW,341,1.1,2.2,56,0.00,,,0.00,WUHU21623XXSP,2013-03-16 08:54:00,
2013-03-16 05:01:00,41.4,27.2,29.79,NNW,341,1.3,1.6,57,0.00,,,0.00,WUHU21623XXSP,2013-03-16 09:01:00,
2013-03-16 05:07:00,41.4,27.2,29.79,NW,318,2.2,2.2,57,0.00,,,0.00,WUHU21623XXSP,2013-03-16 09:07:00,
2013-03-16 05:13:00,41.4,27.2,29.79,NNW,341,0.9,2.2,57,0.00,,,0.00,WUHU21623XXSP,2013-03-16 09:13:00,
2013-03-16 05:20:00,41.4,27.2,29.79,West,273,0.0,2.2,57,0.00,,,0.00,WUHU21623XXSP,2013-03-16 09:20:00,
2013-03-16 05:26:00,41.2,26.6,29.80,WSW,251,0.0,1.1,56,0.00,,,0.00,WUHU21623XXSP,2013-03-16 09:26:00,
2013-03-16 05:33:00,41.2,27.0,29.80,NNW,341,2.9,2.9,57,0.00,,,0.00,WUHU21623XXSP,2013-03-16 09:33:00,
2013-03-16 05:39:00,40.8,26.2,29.80,NNW,341,4.9,4.9,56,0.00,,,0.00,WUHU21623XXSP,2013-03-16 09:39:00,
2013-03-16 05:46:00,40.3,25.7,29.80,NNW,341,6.7,6.9,56,0.00,,,0.00,WUHU21623XXSP,2013-03-16 09:46:00,
2013-03-16 05:52:00,40.1,25.6,29.80,NNW,341,2.5,6.7,55,0.00,,,0.00,WUHU21623XXSP,2013-03-16 09:52:00,
2013-03-16 05:58:00,39.9,25.4,29.80,NNW,341,2.3,3.8,56,0.00,,,0.00,WUHU21623XXSP,2013-03-16 09:58:00,
2013-03-16 06:04:00,39.9,24.9,29.81,NNW,341,5.8,5.8,55,0.00,,,0.00,WUHU21623XXSP,2013-03-16 10:04:00,
2013-03-16 06:09:00,39.7,24.8,29.80,NNW,341,1.6,5.8,55,0.00,,,0.00,WUHU21623XXSP,2013-03-16 10:09:00,
2013-03-16 06:16:00,39.7,24.8,29.80,NNW,341,4.7,4.7,55,0.00,,,0.00,WUHU21623XXSP,2013-03-16 10:16:00,
2013-03-16 06:22:00,39.6,24.6,29.81,NW,318,1.3,4.7,55,0.00,,,0.00,WUHU21623XXSP,2013-03-16 10:22:00,
2013-03-16 06:29:00,39.7,25.2,29.82,WSW,251,0.9,3.1,56,0.00,,,0.00,WUHU21623XXSP,2013-03-16 10:29:00,
2013-03-16 06:35:00,39.9,25.4,29.82,North,3,1.3,1.6,56,0.00,,,0.00,WUHU21623XXSP,2013-03-16 10:35:00,
2013-03-16 06:42:00,40.3,25.6,29.81,NNW,341,2.9,2.9,56,0.00,,,0.00,WUHU21623XXSP,2013-03-16 10:42:00,
2013-03-16 06:48:00,40.1,25.6,29.81,NNW,341,1.6,2.9,56,0.00,,,0.00,WUHU21623XXSP,2013-03-16 10:48:00,
2013-03-16 06:55:00,40.3,25.7,29.81,NNW,341,0.0,2.9,56,0.00,,,0.00,WUHU21623XXSP,2013-03-16 10:55:00,
2013-03-16 07:01:00,40.5,25.7,29.82,NNW,341,0.0,1.3,56,0.00,,,0.00,WUHU21623XXSP,2013-03-16 11:01:00,
2013-03-16 07:07:00,40.6,26.5,29.81,North,3,1.3,1.3,57,0.00,,,0.00,WUHU21623XXSP,2013-03-16 11:07:00,
2013-03-16 07:14:00,40.8,26.7,29.82,NNW,341,1.3,1.3,57,0.00,,,0.00,WUHU21623XXSP,2013-03-16 11:14:00,
2013-03-16 07:20:00,40.8,26.7,29.81,NW,318,1.6,1.6,56,0.00,,,0.00,WUHU21623XXSP,2013-03-16 11:20:00,
2013-03-16 07:27:00,41.0,26.9,29.81,North,3,0.0,1.6,57,0.00,,,0.00,WUHU21623XXSP,2013-03-16 11:27:00,
2013-03-16 07:33:00,41.0,26.9,29.81,NNE,26,0.0,0.9,57,0.00,,,0.00,WUHU21623XXSP,2013-03-16 11:33:00,
2013-03-16 07:39:00,41.2,27.0,29.81,North,3,1.3,1.3,57,0.00,,,0.00,WUHU21623XXSP,2013-03-16 11:39:00,
2013-03-16 07:46:00,41.2,27.2,29.81,NNW,341,1.6,1.6,57,0.00,,,0.00,WUHU21623XXSP,2013-03-16 11:46:00,
2013-03-16 07:52:00,41.2,27.2,29.81,North,3,0.0,1.6,57,0.00,,,0.00,WUHU21623XXSP,2013-03-16 11:52:00,
2013-03-16 07:59:00,41.4,27.2,29.82,North,3,2.5,2.5,57,0.00,,,0.00,WUHU21623XXSP,2013-03-16 11:59:00,
2013-03-16 08:05:00,41.5,27.4,29.83,North,3,2.0,2.5,57,0.00,,,0.00,WUHU21623XXSP,2013-03-16 12:05:00,